User: anonymous   Login
Location: Unspecified
(0.0000°N, 0.0000°E)
Time: 05:19:39
(UTC+00:00)
Language:

MOS 1-B - Orbit

View from above orbital plane
View from above orbital plane
View from above satellite
View from above satellite

Ground track
Ground track

The orbit data is extracted from the following two-line orbital elements,

1 20478U 90013A   18349.54436762 -.00000147  00000-0 -74556-4 0  9991
2 20478  99.3696 324.8805 0006245  61.8715 298.3076 13.95466482389946
Epoch (UTC): 15 December 2018 13:03:53
Eccentricity: 0.0006245
inclination: 99.3696°
perigee height: 905 km
apogee height: 914 km
right ascension of ascending node: 324.8805°
argument of perigee: 61.8715°
revolutions per day: 13.95466482
mean anomaly at epoch: 298.3076°
orbit number at epoch: 38994

The dashed part of the orbit path shows where the satellite is in the earth's shadow,  

DLR